Location: Владивосток
(43.1151°N, 131.8856°E)
Time: 17:00:44
(UTC+10:00)

CZ-6A DEB - Pass Details

Date: 19 December 2025
Orbit: 721 x 815 km, 98.7° (Epoch: 21 January)

Event Time Altitude Azimuth Distance (km) Brightness Sun altitude
Exits shadow 19:51:07 13° 4° (N) 2,060 ? -23.1°
Drops below altitude 10° 19:51:42 10° 1° (N) 2,274 ? -23.2°
Sets 19:54:05 0° 354° (N) 3,189 ? -23.6°
